DELTA 1 DEB, 42087

Orbit data source: Space-Track

DELTA 1 DEB, 42087 is space debris in SSO originally from a launch on Sun, 15 Dec 1968 UTC launched from the Air Force Western Test Range (AFWTR). Debris objects in space refer to the collection of defunct objects orbiting the Earth. Examples of debris include non-operational satellites, rocket bodies, and fragments generated from explosions, collisions, or faulty payload assembly.

Loading next visibility...
Identifier
42087, 1968-114P
Orbit
SSO
Last TLE update
5 hours ago
Origin
Manufacturer
Aerojet
Mission
Spacecraft
Bus & Motor
Unknown
Mass
Unknown
Launch date (UTC)
1968-12-15 (56 years ago)
Launch vehicle
Unknown
Launch site
Air Force Western Test Range (AFWTR)
Object type
Payload
Rocket body
Debris
Shape & HBR
Unknown
Radar Cross Section
Small (<0.1 m²)

Expand to show TLE details & history

TLE from 5 hours ago
0 DELTA 1 DEB
1 42087U 68114P   25129.14358700  .00000505  00000-0  40641-2 0  9995
2 42087 101.4247 102.0450 0200503  23.3637 337.6387 12.35177291903915
Epoch: 2025-05-09T03:26Z
Definitive object data (Epoch: 2025-05-09T03:26:45.916Z)
Latitude
-0.00001°
Longitude
-176.85027°
Altitude
1,383.545 km
Speed
7.234 km/s
True Right ascension
06h 48m 10s
True Declination
0° 00' 00"
Sunlit
Object was in daylight at TLE epoch
Visualization TLE readout
Latitude
-77.03155°
Longitude
-115.79845°
Altitude
1,597.03 km
Speed
7.052 km/s
Apparent Right ascension
06h 18m 48s
Apparent Declination
-65° 59' 06"
Sunlit
Object is in daylight
Visualization observer readout
Local Sidereal Time
16:59:10
Azimuth
196.939° SSW
Elevation
-61.595°
Doppler factor
1
Orbital elements
Apogee altitude
1,683.113 km
Perigee altitude
1,366.206 km
Semi-major axis
7,902.797 km
Eccentricity
0.0200503
Inclination
101.4247°
RAAN
102.045°
Arg. of periapsis
23.3637°
True anomaly
336.74391°
Mean anomaly
337.6387°
Eccentric anomaly
337.1934°
Mean motion
3.08938 °/min
BSTAR
0.0040641
Orbital period
116.53 mins
Loading maneuver chart data...
Loading SW <> Apogee altitude chart data...
Loading historical data...
Loading historical data...
Loading historical data...
Loading historical data...
Loading historical data...
Loading historical data...
Loading historical data...

DELTA 1 DEB Visibility forecast

Observer location: undefined°, undefined°

Span
Click to sort rows by Start time (UTC) header in descending order
Start Az.
Max El. time (UTC)
Max El. Az.
Max El.
End time (UTC)
End Az.
14 mins2025-05-09 09:54:56.593Z38.616° NE2025-05-09 10:01:56.593Z98.375° ESE29.131°2025-05-09 10:08:56.593Z155.227° SSE
15 mins2025-05-09 11:49:56.593Z5.413° NNE2025-05-09 11:56:56.593Z283.067° WNW40.116°2025-05-09 12:04:56.593Z219.517° SW
5 mins2025-05-09 13:46:56.593Z330.339° NNW2025-05-09 13:48:56.593Z315.985° NNW12.944°2025-05-09 13:51:56.593Z294.932° NW
12 mins2025-05-09 21:04:56.593Z126.034° SE2025-05-09 21:09:56.593Z70.515° E35.629°2025-05-09 21:16:56.593Z356.535° N
13 mins2025-05-09 22:58:56.593Z201.883° SSW2025-05-09 23:04:56.593Z262.641° W30.728°2025-05-09 23:11:56.593Z326.304° NNW
|